Lid_Strength_Index
3 3 2 2 2 1 1 0 1 1 1 1 2 2 2 2 2 2 3 3 2 2 2 1 1 1 3 5 5 0 -1 -2 1 2 3 4 5 7 8 8 8 8 8 6 6 6 6
4 3 3 3 2 2 1 1 1 1 1 1 2 2 2 2 2 2 2 3 3 2 1 1 2 2 5 8 1 -0 0 1 3 3 3 3 5 5 7 7 8 6 8 6 6 6 6
4 4 4 3 3 3 2 2 1 1 1 1 2 2 2 2 2 2 2 2 3 2 1 2 2 3 4 5 2 2 1 2 3 3 4 3 4 5 6 7 5 6 8 8 7 7 7
4 4 4 4 4 3 3 2 2 1 1 1 2 2 2 2 3 3 2 2 2 2 2 2 2 4 6 0 2 2 3 3 3 2 2 2 3 4 6 5 6 9 9 11 8 6 6
5 5 4 4 4 4 3 3 2 1 1 1 2 2 2 3 3 3 3 2 2 2 2 2 4 6 7 0 2 1 2 3 3 3 3 2 4 6 6 9 11 9 13 10 9 7 7
5 4 4 4 5 4 4 3 3 2 1 1 2 2 2 3 3 3 3 2 2 3 3 3 3 6 4 4 2 2 2 2 3 3 4 5 6 8 9 11 14 13 12 11 10 9 8
5 5 5 4 4 4 4 3 3 2 2 2 2 2 2 2 3 3 4 4 6 7 6 6 5 5 4 2 2 3 2 3 4 5 9 7 10 12 10 9 8 9 10 11 10 8 9
4 4 4 4 4 4 4 4 3 3 2 2 2 2 2 3 3 3 4 5 4 4 8 4 5 4 3 2 5 4 2 5 6 9 7 9 11 8 7 7 8 9 10 11 9 8 10
3 4 4 4 3 3 4 4 4 3 3 3 3 2 3 3 3 4 5 4 2 3 8 6 4 4 4 3 5 5 4 6 7 8 8 10 9 6 7 8 9 9 10 10 10 10 10
3 3 3 4 4 3 3 3 3 3 2 2 3 3 3 3 5 4 5 2 2 3 12 8 6 5 4 4 6 3 3 5 6 8 8 9 7 7 8 9 8 11 8 8 9 11 14
3 3 3 2 3 4 3 3 2 2 2 2 3 3 3 3 4 4 3 1 2 4 20 7 6 2 3 5 5 5 3 5 7 8 8 10 8 9 9 9 8 9 8 8 9 11 11
3 3 3 3 3 3 3 3 3 2 2 2 2 2 3 3 3 3 4 3 3 13 19 9 6 6 6 6 6 5 5 4 4 7 7 8 6 7 8 7 8 7 8 9 10 12 17
3 3 3 3 3 3 3 3 2 3 2 2 3 2 3 2 4 2 2 4 14 18 8 9 8 7 7 8 7 7 7 8 10 12 11 9 8 7 6 9 7 8 11 16 17 18 19
4 4 3 3 3 3 3 3 2 2 3 2 3 4 3 2 1 2 2 10 17 11 10 7 7 7 9 8 8 7 8 10 8 9 11 12 15 9 7 9 10 10 11 16 20 21 17
4 4 4 4 4 3 3 3 2 2 1 2 2 2 3 2 2 2 7 14 14 11 8 8 8 10 9 8 8 8 10 10 9 8 12 13 13 8 7 7 8 9 12 9 15 15 18
4 4 4 4 4 4 3 3 2 1 1 1 3 4 3 1 1 3 9 13 11 7 7 7 10 9 11 9 9 10 10 8 8 7 7 11 14 9 8 7 7 9 8 13 14 19 20
3 3 4 5 4 4 3 3 2 1 1 1 3 6 3 0 1 6 12 12 9 6 6 8 9 9 9 9 9 10 9 8 7 7 7 9 11 12 9 10 10 10 11 10 11 14 19
2 3 4 4 5 5 4 3 2 2 1 2 4 9 2 0 9 8 11 9 7 7 6 7 6 8 9 8 9 10 9 8 6 6 9 8 11 15 12 8 7 9 10 11 16 15 16
3 3 3 3 4 4 4 4 3 2 1 3 7 6 2 3 11 11 8 9 7 8 8 8 8 7 7 8 11 9 9 7 6 7 9 8 11 16 13 10 9 10 9 10 10 13 16
3 3 3 3 3 4 4 4 3 2 1 2 6 10 7 5 6 9 10 10 10 6 7 6 7 7 8 9 8 9 10 7 6 7 7 7 10 12 16 13 10 12 10 10 10 16 16
4 3 3 3 3 3 4 4 3 2 1 2 6 8 7 11 10 9 8 9 10 10 7 6 8 8 9 11 9 10 9 9 7 7 7 8 12 11 11 10 9 10 10 10 11 11 14
4 3 3 3 2 3 3 4 3 2 1 3 8 8 7 9 8 9 9 10 10 8 8 8 9 8 8 10 9 10 9 10 10 8 9 8 14 13 14 10 10 12 10 10 10 10 11
3 3 3 3 2 2 1 2 3 2 1 5 4 4 6 9 9 10 9 9 9 7 7 6 7 8 9 8 7 8 7 7 7 9 10 10 12 14 17 12 12 16 12 10 10 9 10
3 3 3 2 2 1 1 2 2 1 1 3 4 4 8 11 9 9 8 8 8 8 9 6 6 8 7 5 5 6 7 8 8 8 8 11 12 15 17 16 21 11 8 9 9 9 9
3 3 3 2 1 1 1 1 1 1 1 3 3 4 7 12 8 8 8 8 7 7 7 7 6 5 4 7 11 12 14 14 11 8 9 9 13 15 17 17 13 10 9 9 10 11 8
3 2 2 2 1 1 1 1 1 0 1 3 4 4 5 9 10 6 8 7 9 9 10 8 5 5 6 10 13 16 17 13 14 11 8 9 11 15 16 18 20 12 9 7 7 14 7
2 2 2 2 1 1 0 1 1 0 2 3 4 3 5 8 6 6 8 8 7 9 10 9 8 8 6 14 14 16 15 10 15 15 15 14 15 16 18 19 14 9 7 7 15 13 7
2 2 2 1 0 -0 -0 0 1 1 3 4 5 4 4 7 6 5 4 6 7 8 11 8 9 9 11 13 13 15 16 13 13 11 13 14 15 16 16 17 18 7 8 12 9 7 7
2 1 1 1 -0 -0 -0 1 1 2 3 4 7 4 2 5 6 3 3 3 4 4 7 7 8 8 8 11 12 13 15 14 14 16 9 14 12 14 13 13 8 7 7 6 6 7 7